ESSA 1 (OT-3)

导读

ESSA 1(OT-3)是美国于1966年2月3日发射的业务气象卫星,隶属于ESSA(艾萨)卫星系列,属于第二代TIROS卫星。作为早期实用气象卫星,它主要负责获取全球可见光云图,为天气分析和预报提供观测数据,标志着气象卫星从试验阶段进入业务应用阶段,推动了气象观测的全球化发展,是美国气象卫星发展历程中的重要节点,为后续NOAA系列极地轨道气象卫星奠定了技术基础。

基本信息
目录编号:
1982
目录名称:
ESSA 1 (OT-3)
国际标识:
1966-008A
轨道中心:
EARTH
卫星名称:
ESSA 1 (OT-3)
卫星全名:
--
卫星状态:
在轨 (已飞行22076 天)
发射日期:
1966-02-03 UTC
国别 :
美国 (US)
星等 :
--
轨道信息
数据来源 国际轨道数据
星历时间: 2026-07-13T23:47:36+0800
13小时前
查看轨道信息
半长轴: 7109.171km
偏心率: 0.0080244
轨道倾角: 97.810°
近地点辐角 23.209°
升交点赤经 224.572°
平近点角 337.270°
近地点: 673.987km
远地点: 788.081km
周期: 99.423分钟
每日圈数: 14.483527
详细信息
使用方式:
暂无
2D轨道图
3D轨道图
轨道高度分析图
轨道倾角分析图
轨道综合分析图
查看轨道综合分析图